Home   Weather   Tuzla   Past weeks

Flag for Bosnia-Herzegovina Past Weather in Tuzla, Bosnia-Herzegovina — Yesterday and Last 2 Weeks

Now
46 °F

Partly sunny.


Feels Like: 46 °F
Forecast: 28 / 51 °F
Wind: 2 mph from North

Location: Tuzla

Current Time: Feb 20, 2017 at 4:35:08 pm

Latest Report: Feb 20, 2017 at 4:00 pm


Visibility: N/A

Pressure: 30.18 "Hg

Humidity: 43%

Dew Point: 25 °F

Location of TuzlaLocation

Past Weather in Tuzla — Graph

°F

Tuzla Temperature Yesterday

Maximum temperature yesterday: 41 °F (at 1:30 pm)
Minimum temperature yesterday: 32 °F (at 12:00 am)
Average temperature yesterday: 35 °F

High & Low Weather Summary for the Past Weeks

 TemperatureHumidityPressure
High59 °F (Feb 6, 1:30 pm)100% (Feb 6, 10:00 pm)30.63 "Hg (Feb 6, 10:00 pm)
Low19 °F (Feb 15, 5:30 am)19% (Feb 15, 4:00 pm)29.56 "Hg (Feb 6, 1:00 pm)
Average37 °F76%30.24 "Hg
* Reported Feb 5 3:00 pm — Feb 20 3:00 pm, Tuzla, Weather by CustomWeather, © 2017

Note: Actual official high and low records may vary slightly from our data, if they occured in-between our weather recording intervals... More about our weather records

Advertising

Tuzla Weather History for the Previous 24 Hours

Scroll right to see more
 ConditionsComfort  
Time TempWeatherWind HumidityBarometerVisibility
3:00 pm
Mon, Feb 20
46 °FScattered clouds.1 mph57%30.18 "HgN/A
2:30 pm46 °FScattered clouds.2 mph57%30.18 "HgN/A
2:00 pm43 °FScattered clouds.2 mph61%30.18 "Hg5 mi
1:30 pm41 °FFog.3 mph70%30.21 "Hg3 mi
1:00 pm39 °FFog.2 mph93%30.21 "Hg2 mi
12:30 pm36 °FFog.5 mph93%30.21 "Hg2 mi
12:00 pm36 °FFog.2 mph93%30.24 "Hg1 mi
11:30 am34 °FFog.2 mph93%30.24 "Hg1 mi
11:00 am32 °FIce fog.2 mph93%30.24 "Hg1 mi
10:30 am32 °FIce fog.3 mph93%30.24 "Hg1 mi
10:00 am30 °FIce fog.1 mph93%30.24 "Hg1 mi
9:30 am30 °FIce fog.1 mph93%30.24 "Hg1 mi
9:00 am30 °FIce fog.2 mph93%30.24 "Hg1 mi
8:30 am30 °FIce fog.2 mph93%30.24 "Hg0 mi
8:00 am30 °FIce fog.2 mph93%30.24 "Hg0 mi
7:30 am30 °FLight mixture of precip. Ice fog.3 mph100%30.21 "Hg0 mi
7:00 am30 °FIce fog.2 mph100%30.21 "Hg0 mi
6:30 am30 °FIce fog.1 mph100%30.21 "Hg0 mi
6:00 am32 °FDrizzle. Ice fog.2 mph93%30.21 "Hg0 mi
5:30 am32 °FIce fog.3 mph93%30.21 "Hg0 mi
5:00 am32 °FIce fog.3 mph93%30.21 "Hg0 mi
12:00 am32 °FFog.1 mph100%30.21 "Hg0 mi
11:30 pm
Sun, Feb 19
34 °FFog.No wind100%30.21 "Hg0 mi
11:00 pm34 °FFog.1 mph100%30.21 "Hg0 mi
10:30 pm34 °FFog.1 mph100%30.21 "Hg0 mi
10:00 pm34 °FFog.No wind100%30.21 "Hg0 mi
9:30 pm34 °FFog.No wind100%30.21 "Hg0 mi
9:00 pm34 °FFog.No wind100%30.21 "Hg0 mi
8:30 pm34 °FFog.2 mph93%30.21 "Hg1 mi
8:00 pm36 °FFog.2 mph87%30.21 "Hg1 mi
7:30 pm34 °FFog.2 mph93%30.21 "Hg1 mi
7:00 pm36 °FLight snow. Fog.2 mph87%30.21 "Hg1 mi
6:30 pm36 °FLight snow. Fog.3 mph87%30.21 "Hg1 mi
6:00 pm36 °FLight snow. Fog.2 mph87%30.21 "Hg1 mi
5:30 pm36 °FFog.3 mph93%30.21 "Hg1 mi
5:00 pm36 °FFog.2 mph93%30.21 "Hg1 mi
4:30 pm36 °FFog.2 mph93%30.21 "Hg1 mi
4:00 pm36 °FFog.3 mph93%30.21 "Hg1 mi
Weather by CustomWeather, © 2017

See weather overviewHow to use our weather pages